Notices

What’s New in latest Release from January 14th 2021:

·       In Historical Hourly Data Report, users can switch between Local Standard Time (LST) and Universal Time Coordinates (UTC) time.

·       In Historical Hourly Data Report, we have an addition of a new column to display hourly precipitation data for the stations where the data are available, from 2001 onwards.

·       Expanded the Search Options of the Canadian Historical Weather Radar, users now able to select 24 hours (1 image every hour) image viewing duration.

Please note that the IDF dataset is available through this link: Intensity-Duration-Frequency (IDF) Files .

Hourly Data Report for November 14, 2019

QUALICUM BEACH AIRPORT
BRITISH COLUMBIA
Current Station Operator: ECCC - MSC

49°20'14.000" N
124°23'38.000" W
58.20 m
1026562
71766
VOQ

Download Data

Hourly Data (November 2019)
Hourly Data Report for November 14, 2019
TIME
LST
Temp Definition
°C
Dew Point Definition
°C
Rel Hum Definition
%
Precip. Amount Definition
mm

Wind Dir Definition
10's deg

Wind Spd Definition
km/h
Visibility Definition
km
Stn Press Definition
kPa
Hmdx Definition


Wind Chill Definition


Weather Definition


00:00 5.7 5.3 98 LegendMM   0   101.08     LegendNANA
01:00 6.0 5.7 98 LegendMM 20 2   101.05     LegendNANA
02:00 6.7 6.3 98 LegendMM 0 1   101.02     LegendNANA
03:00 6.6 6.2 98 LegendMM 21 1   101.02     LegendNANA
04:00 7.0 6.6 98 LegendMM 14 3   100.93     LegendNANA
05:00 7.5 7.2 98 LegendMM 17 3   100.95     LegendNANA
06:00 7.2 6.9 98 LegendMM 17 5   100.91     LegendNANA
07:00 6.6 6.2 97 LegendMM 27 4   100.92     LegendNANA
08:00 6.0 5.7 98 LegendMM 22 4   100.87     LegendNANA
09:00 6.4 6.1 98 LegendMM   0   100.87     LegendNANA
10:00 7.9 7.4 97 LegendMM 28 3   100.89     LegendNANA
11:00 9.6 7.0 84 LegendMM 12 2   100.86     LegendNANA
12:00 10.4 7.4 82 LegendMM 28 3   100.84     LegendNANA
13:00 10.6 7.8 83 LegendMM 32 6   100.78     LegendNANA
14:00 10.4 7.9 85 LegendMM 31 4   100.73     LegendNANA
15:00 9.9 8.2 89 LegendMM 5 1   100.73     LegendNANA
16:00 9.4 8.0 91 LegendMM 11 1   100.72     LegendNANA
17:00 8.9 7.9 93 LegendMM 29 3   100.69     LegendNANA
18:00 8.6 7.8 95 LegendMM 30 8   100.66     LegendNANA
19:00 8.3 7.7 96 LegendMM 26 3   100.66     LegendNANA
20:00 7.8 7.2 96 LegendMM 21 2   100.60     LegendNANA
21:00 7.9 7.4 96 LegendMM   0   100.58     LegendNANA
22:00 7.8 7.3 97 LegendMM 0 1   100.60     LegendNANA
23:00 7.8 7.3 97 LegendMM   0   100.56     LegendNANA

Notes on Data Quality.

Legend

  • E = Estimated
  • M = Missing
  • NA = Not Available*
  • [empty] = Indicates an unobserved value
Date modified: